Volver al catálogo

BREEZE-M DEB

LostHEO
NORAD 35542·DEBRIS·🇷🇺 Russia

Lanzado Feb 28, 2006 desde Baikonur Cosmodrome

Loading…

Próximos Pases (próximas 24 horas)

TLE

ObsoletoSource: Space-Track

Época: Dec 16, 2024, 07:00 UTC

1 35542U 06006CK  24351.29207653  .00000351  00000-0  26558-2 0  9997
2 35542  51.5587 181.2103 4986396 217.5838 346.8014  5.14082260311040

Sigue BREEZE-M DEB en tiempo real con AllMySat

Download on the App Store